Content
SEND FEEDBACK

Daily
Averages
Monthly
Summary
United States of America

SANTAQUIN, UTAH


Home > North America > United States > Utah
Elevation: 5165 feet     Latitude: 39 57N     Longitude: 111 48W

WEATHER
 
SELECT A DAY
Number of Records: 399,013;   Date Range: 1/1/95 - 8/30/14
 
SHARE

PRINT THIS DATA

[ ← Previous Day ]
WEATHER ALMANAC - JANUARY 31, 2013
[ Next Day → ]
[ °C ]   °F
Weather ElementAverageHighLow
Temperature26.6 °F37.4 °F (3:58 pm)17.6 °F (9:35 pm)
Dewpoint24.3 °F28.4 °F (2:35 am)15.8 °F (9:35 pm)
Humidity91.3 %100 % (2:35 am)70 % (12:49 pm)
Barometer30.33 in30.38 in (9:35 am)30.28 in (12:35 am)
Wind Speed1.8 mph5.8 mph (12:55 am)
Weather ElementAverage
Visibility5.2 mi
Wind DirectionENE (83.7 °)

Weather ElementTotal
Precipitation---
Heating Degree Days37.5 (Base 65)
Averaged from 46 records on January 31, 2013
WEATHER CONDITIONS BREAKOUT
WIND DIRECTION BREAKOUT
WEATHER BY HOUR - JANUARY 31, 2013
[ °C ]   °F
Local TimeTemperatureDewpointHumidityBarometerVisibilityWind DirectionWind SpeedGust SpeedPrecipitationEventsConditions
12:35 AM26.6 °F24.8 °F93 %30.28 in3.0 miCalmOvercast
12:55 AM26.6 °F24.8 °F93 %30.29 in3.0 miESE (120°)5.8 mphOvercast
1:15 AM26.6 °F24.8 °F93 %30.29 in3.0 miSE (130°)3.5 mphOvercast
1:35 AM26.6 °F24.8 °F93 %30.28 in3.0 miCalmOvercast
1:55 AM26.6 °F24.8 °F93 %30.29 in3.0 miCalmOvercast
2:15 AM26.6 °F24.8 °F93 %30.29 in4.0 miCalmOvercast
2:35 AM28.4 °F28.4 °F100 %30.30 in5.0 miCalmOvercast
2:55 AM28.4 °F24.8 °F86 %30.30 in5.0 miNNW (330°)3.5 mphOvercast
3:15 AM26.6 °F24.8 °F93 %30.30 in5.0 miNW (320°)5.8 mphOvercast
3:35 AM28.4 °F26.6 °F93 %30.31 in9.0 miNNW (330°)3.5 mphOvercast
3:55 AM28.4 °F26.6 °F93 %30.31 in10.0 miCalmOvercast
4:15 AM28.4 °F26.6 °F93 %30.31 in7.0 miNNW (340°)3.5 mphOvercast
4:35 AM28.4 °F28.4 °F100 %30.31 in7.0 miNNE (20°)3.5 mphOvercast
4:55 AM28.4 °F26.6 °F93 %30.32 in10.0 miCalmOvercast
5:35 AM28.4 °F24.8 °F86 %30.32 in5.0 miCalmOvercast
5:55 AM26.6 °F24.8 °F93 %30.32 in5.0 miCalmOvercast
6:15 AM26.6 °F24.8 °F93 %30.33 in4.0 miCalmOvercast
6:35 AM26.6 °F24.8 °F93 %30.33 in4.0 miCalmOvercast
6:55 AM26.6 °F24.8 °F93 %30.34 in4.0 miWSW (240°)3.5 mphOvercast
7:15 AM26.6 °F24.8 °F93 %30.35 in4.0 miSW (220°)4.6 mphOvercast
7:35 AM26.6 °F24.8 °F93 %30.35 in3.0 miEast (100°)5.8 mphOvercast
7:50 AM26.6 °F24.8 °F93 %30.35 in8.0 miCalmMostly Cloudy
7:55 AM26.6 °F26.6 °F100 %30.35 in3.0 miESE (110°)4.6 mphOvercast
8:15 AM26.6 °F24.8 °F93 %30.35 in3.0 miCalmOvercast
8:35 AM26.6 °F24.8 °F93 %30.36 in4.0 miESE (120°)3.5 mphOvercast
8:50 AM26.6 °F24.8 °F93 %30.37 in10.0 miCalmMostly Cloudy
8:55 AM26.6 °F26.6 °F100 %30.37 in5.0 miCalmMostly Cloudy
9:15 AM28.4 °F26.6 °F93 %30.37 in6.0 miCalmMostly Cloudy
9:35 AM24.8 °F19.4 °F80 %30.38 in3.0 miWest (280°)4.6 mphScattered Clouds
9:55 AM28.4 °F24.8 °F86 %30.38 in5.0 miWNW (290°)3.5 mphClear
11:50 AM30.2 °F26.6 °F86 %30.38 in10.0 miCalmMostly Cloudy
12:49 PM35.6 °F26.6 °F70 %30.37 in12.0 miCalmMostly Cloudy
2:47 PM33.8 °F28.4 °F81 %30.34 in10.0 miCalmMostly Cloudy
3:58 PM37.4 °F28.4 °F70 %30.33 in10.0 miCalmMostly Cloudy
5:50 PM30.2 °F24.8 °F80 %30.32 in10.0 miWNW (300°)5.8 mphScattered Clouds
7:50 PM28.4 °F24.8 °F86 %30.33 in10.0 miVariable4.6 mphScattered Clouds
8:50 PM24.8 °F23.0 °F93 %30.32 in10.0 miCalmScattered Clouds
8:55 PM24.8 °F21.2 °F86 %30.32 in5.0 miCalmClear
9:15 PM19.4 °F17.6 °F93 %30.32 in0.2 miSW (230°)3.5 mph
9:35 PM17.6 °F15.8 °F93 %30.32 in0.2 miCalm
9:55 PM19.4 °F17.6 °F93 %30.33 in0.5 miNNW (340°)3.5 mph
10:15 PM19.4 °F17.6 °F93 %30.32 in2.5 miNorth (10°)3.5 mphClear
10:35 PM21.2 °F21.2 °F100 %30.32 in2.0 miCalmClear
11:15 PM21.2 °F21.2 °F100 %30.32 in1.5 miCalmMostly Cloudy
11:35 PM21.2 °F21.2 °F100 %30.32 in2.0 miNNE (20°)3.5 mphOvercast
11:55 PM24.8 °F23.0 °F93 %30.32 in1.2 miCalmOvercast
Hourly data recorded from KPVU, located miles away from Santaquin, Utah







STORIES FROM OUR PARTNERS